Regional Weather Roundup
Issued by NWS

Home | Current Version | Previous Version | Text Only | Print | Product List | Glossary Off
Versions: 1 2 3 4 5 6 7 8 9 10 11 12 13 14 15 16 17 18 19 20 21 22 23 24 25 26 27 28 29 30 31 32 33 34 35 36 37 38 39 40 41 42 43 44 45 46 47 48 49 50

000
ASUS45 KBOI 271010
RWRID

IDAHO REGIONAL WEATHER ROUNDUP
NATIONAL WEATHER SERVICE BOISE ID
400 AM MDT TUE JUN 27 2017

NOTE: "FAIR" INDICATES FEW OR NO CLOUDS BELOW 12000 FEET
WITH NO SIGNIFICANT WEATHER AND/OR OBSTRUCTIONS TO VISIBILITY

IDZ012-014-271100-
SOUTHWEST IDAHO


CITY           SKY/WX    TMP DP  RH WIND       PRES   REMARKS
BOISE          PTCLDY    65  50  58 NW10      29.89R
CALDWELL       PTCLDY    63  52  67 NE3       29.86F
MOUNTAIN HOME  PTCLDY    63  49  62 NW8       29.87S
$$

IDZ016-017-271100-
SOUTHCENTRAL IDAHO


CITY           SKY/WX    TMP DP  RH WIND       PRES   REMARKS
BURLEY         MOCLDY    62  54  74 S5        29.90R
JEROME         CLEAR     62  51  67 W9        29.91R
TWIN FALLS     CLEAR     62  50  64 SW14      29.92R
$$

IDZ019>023-271100-
SOUTHEAST IDAHO


CITY           SKY/WX    TMP DP  RH WIND       PRES   REMARKS
IDAHO FALLS    PTCLDY    67  50  54 E9        29.91F
POCATELLO      CLOUDY    70  47  43 NE3       29.89F
REXBURG        CLOUDY    61  53  75 E8        29.92F
$$

IDZ006-010-011-018-031-032-271100-
CENTRAL IDAHO MOUNTAINS


CITY           SKY/WX    TMP DP  RH WIND       PRES   REMARKS
MCCALL         CLOUDY    55  49  80 S7        29.97F
HAILEY         PTCLDY    59  45  58 NW5       30.00R
STANLEY          N/A     50  47  89 CALM      30.15R
SALMON         PTCLDY    55  52  88 N6        29.91F
CHALLIS        MOCLDY    57  46  66 W9        29.98R
$$

IDZ002-004-006-007-026-271100-
NORTHERN IDAHO


CITY           SKY/WX    TMP DP  RH WIND       PRES   REMARKS
LEWISTON       MOCLDY    67  55  65 W3        29.82R
LOWELL           N/A     62  57  83 CALM      29.85R
COEUR D`ALENE  PTCLDY    62  56  80 SW5       29.83R
MULLAN PASS    CLOUDY    54  44  69 SW10G18   29.96S
$$



USA.gov is the U.S. government's official web portal to all federal, state and local government web resources and services.